Location: La Pernelle
(49.6188°N, 1.2999°W)
Time: 10:06:04
(UTC+00:00)

USA 238 - Pass Details

Date: 12 June 2021
Orbit: 989 x 1223 km, 63.4° (Epoch: 16 July)

Event Time Altitude Azimuth Distance (km) Brightness Sun altitude
Rises 21:02:12 0° 201° (SSW) 3,705 6.3 -6.6°
Reaches altitude 10° 21:04:47 10° 197° (SSW) 2,775 5.6 -6.9°
Maximum altitude 21:11:04 53° 122° (ESE) 1,257 3.8 -7.6°
Drops below altitude 10° 21:17:42 10° 48° (NE) 2,923 6.1 -8.2°
Sets 21:20:29 0° 44° (NE) 3,919 6.8 -8.5°
